RADUGA-1 3 [-]

Last updated on March 31, 2020, 4:59 a.m. UTC

1 22981U 94008A   20090.68799483 -.00000321  00000-0  00000-0 0  9995
2 22981  14.9238   6.4689 0005246  12.6784 157.7780  1.00280455 95722
UTC
Height (km)
Latitude
Longitude
Inclination
Orbital Period
UTC large
Height (km)
Speed (km/s)
/
Latitude / Longitude
Inclination (degrees)
Orbital Period (minutes)
Azimuth
Elevation
Range (km)
Doppler Factor
iOS Compass Heading
iOS Angle

Next 30 passes for location: Hong Kong

Rise time Rise Azimuth (degrees) Set time Set Azimuth (degrees) Duration Max altitude (degrees)

No matching passes for this satellites